Theta_e
309 311 306 300 300 300 300 301 300 300 298 297 298 298 298 297 298 297 301 304 304 305 305 305 305 308 308 308 313 311 320 322 326 323 323 321 322 322 323 322 324 325 327 327 329 331 330 338 335 333 335 336 336 337
309 310 305 300 300 300 300 300 301 301 299 297 297 297 297 297 297 297 298 299 302 303 304 303 303 304 304 304 305 308 317 318 321 326 326 324 326 324 324 327 325 328 328 329 327 327 333 339 340 340 341 339 338 336
310 309 304 300 300 300 300 300 301 302 300 298 297 297 297 297 297 297 297 298 299 303 304 308 312 312 309 308 308 310 311 311 313 318 323 324 326 322 327 328 327 328 327 333 335 337 339 338 337 339 341 342 338 334
311 306 303 300 300 300 300 301 301 302 300 299 297 297 297 296 297 297 299 299 304 305 308 310 313 311 312 310 308 308 308 308 309 311 319 322 324 317 322 322 325 326 329 335 337 335 336 335 337 339 342 340 338 338
307 304 303 301 300 300 300 301 302 302 301 299 297 297 297 296 297 299 303 305 307 306 309 307 308 312 314 313 310 310 309 309 309 310 318 320 317 319 317 320 326 330 331 332 337 334 336 335 336 339 342 341 339 338
305 306 304 301 300 300 300 301 302 302 300 299 297 297 297 296 297 304 307 307 308 308 308 309 308 312 313 314 312 312 312 311 310 313 313 314 314 317 321 323 329 330 330 330 333 333 334 334 334 336 338 339 338 334
306 306 305 302 300 300 301 302 301 300 300 299 297 297 297 296 297 303 308 309 308 307 307 309 311 314 314 312 312 313 311 310 309 308 310 311 314 314 320 322 329 329 328 329 331 331 332 331 332 331 333 334 333 331
305 304 303 301 300 301 302 300 301 300 299 298 297 297 296 296 297 298 306 306 306 305 306 309 312 314 315 313 315 313 311 310 310 312 312 313 310 312 315 318 316 317 321 327 330 330 328 330 330 330 330 329 330 330
303 302 302 302 302 301 299 299 299 300 298 296 297 296 296 299 307 306 307 307 307 305 310 311 314 319 314 315 313 314 311 313 309 313 313 313 314 313 313 317 319 320 319 322 326 330 329 329 328 328 327 324 322 320
302 302 302 301 299 299 298 299 300 300 296 296 296 302 305 307 309 309 308 307 308 306 305 309 309 316 315 316 318 317 315 319 319 316 311 315 315 314 318 318 319 318 318 321 326 329 329 328 327 325 323 321 320 318
300 299 299 300 300 300 300 301 301 297 296 296 303 306 307 309 308 307 308 310 309 310 308 307 308 312 313 319 320 314 318 318 321 318 317 317 318 320 318 318 317 318 319 320 323 324 324 323 322 321 321 320 320 320
301 301 300 301 301 301 301 301 299 296 295 300 305 307 307 308 307 309 310 308 310 311 310 311 311 308 312 316 318 317 319 318 320 318 322 322 321 318 318 318 317 316 316 317 318 319 320 320 321 321 321 321 321 321
300 300 301 302 301 301 301 301 298 296 298 304 305 306 307 307 307 308 310 311 312 311 312 312 312 312 315 317 317 318 319 319 318 322 322 321 319 319 318 318 317 316 315 315 315 315 315 315 315 316 317 317 318 319
300 300 301 301 302 301 302 302 297 296 303 304 306 305 308 308 308 308 310 310 310 310 314 315 316 316 316 318 318 317 318 318 320 321 322 321 319 319 319 316 314 313 313 313 313 313 313 313 313 313 314 314 314 315
297 299 302 302 302 302 301 300 296 298 302 305 306 307 308 308 307 308 308 308 309 309 313 314 314 314 316 317 317 317 319 319 320 322 321 319 318 319 316 314 312 312 315 316 317 317 316 316 316 316 315 315 314 314
298 301 301 302 300 301 300 297 296 301 303 304 305 308 308 308 309 309 310 310 310 313 313 313 315 316 317 316 317 318 319 320 320 320 319 318 317 315 313 312 313 315 317 318 317 315 315 315 315 315 315 315 315 316
298 301 300 301 301 300 297 296 299 300 303 305 307 307 307 308 309 310 312 313 313 313 317 316 316 317 314 317 318 318 319 318 317 318 316 315 313 312 313 314 316 318 318 319 319 319 319 319 318 317 316 316 317 317
300 301 300 300 299 297 296 298 299 300 303 305 306 307 307 307 311 312 312 312 312 314 313 316 313 316 317 317 319 318 317 316 315 315 313 312 313 314 314 316 318 318 319 319 318 318 318 317 318 318 318 318 318 317
300 300 300 298 296 296 297 299 303 305 306 306 306 307 310 310 312 311 309 310 310 311 312 312 315 316 318 316 316 316 315 314 314 312 312 314 314 314 315 318 318 317 318 317 317 317 316 315 315 316 316 316 316 316
299 298 297 295 299 301 301 301 302 304 307 308 308 310 310 311 311 310 309 309 310 310 312 315 316 316 316 314 314 313 312 312 312 313 314 314 314 315 316 317 318 317 317 317 316 315 315 315 315 316 315 315 315 317
297 297 296 302 303 303 304 305 304 306 307 308 310 310 311 310 309 310 310 310 310 310 314 314 314 314 314 313 313 312 311 311 313 314 314 315 315 315 316 317 317 317 316 316 316 317 316 316 316 316 314 315 315 315
297 296 296 301 302 304 306 306 306 307 308 310 311 311 311 311 309 308 308 309 310 311 311 312 313 312 311 311 312 312 311 313 314 315 315 316 316 316 316 316 316 316 316 316 316 316 316 315 315 315 315 315 315 315
296 299 303 303 304 304 305 306 308 309 310 310 309 310 308 307 306 307 308 307 307 308 310 310 310 311 311 311 311 311 313 314 315 316 316 316 316 316 316 315 315 316 315 316 315 315 313 313 313 312 313 313 314 314
299 300 303 304 304 305 305 307 307 307 307 307 308 309 308 307 306 307 308 307 307 309 310 311 312 313 313 313 313 313 314 315 315 316 316 316 315 315 314 314 314 313 313 313 312 311 310 310 310 310 311 311 311 311
302 301 303 303 303 306 307 307 305 306 307 307 307 307 308 306 309 306 306 309 309 309 311 312 313 313 313 314 313 315 316 316 315 315 316 314 312 311 311 311 311 311 311 312 311 311 311 310 309 309 310 309 308 309
300 305 306 307 306 308 305 306 305 306 307 308 308 308 308 309 309 309 310 310 310 312 313 313 313 313 314 314 315 316 316 315 315 314 312 311 312 313 314 315 315 315 315 316 315 314 311 309 309 309 310 310 310 310
303 305 305 305 305 305 305 305 305 307 307 309 309 309 310 311 311 310 310 311 311 313 313 313 314 314 314 315 316 315 314 313 313 311 312 313 313 313 313 314 313 312 312 313 312 309 309 310 310 310 310 310 310 310
304 304 304 305 305 304 305 307 307 308 308 309 310 312 312 312 312 310 311 312 313 313 313 314 315 315 316 316 316 315 315 314 314 313 313 313 312 311 313 313 312 312 312 312 311 311 311 310 310 311 310 310 310 310
306 305 304 305 305 305 306 308 310 310 309 310 311 312 312 312 312 311 312 312 313 313 313 315 315 315 315 315 315 315 315 315 315 315 315 314 313 312 310 310 311 310 310 311 310 310 310 311 311 310 310 310 310 310
307 306 306 307 308 309 309 308 309 310 312 311 310 312 312 312 313 312 313 313 313 314 315 315 314 315 315 314 314 313 313 313 312 312 312 311 311 309 309 309 309 310 311 311 310 310 310 310 310 310 309 309 310 310
310 307 308 309 311 312 312 313 313 312 313 313 312 312 312 313 313 314 314 314 314 315 315 315 315 315 315 315 315 314 312 312 313 313 312 311 311 311 311 311 311 311 311 311 311 311 311 310 310 311 310 310 310 310
311 310 310 311 311 312 313 313 313 313 313 313 313 314 314 314 314 315 315 315 315 315 315 314 313 313 314 313 313 313 314 314 314 312 311 311 313 311 310 311 311 311 312 312 311 311 311 310 309 309 308 308 307 307
312 313 312 312 312 313 312 312 313 314 314 313 313 314 313 313 314 314 314 315 315 314 313 312 312 312 312 312 312 312 313 314 313 311 311 311 311 312 312 312 312 312 311 310 310 310 309 308 308 307 307 307 306 306
Wind_Speed
23 21 16 14 12 9 6 5 5 7 8 7 6 6 6 5 4 4 4 4 6 4 7 4 2 1 3 3 2 9 5 4 5 3 2 1 1 2 1 1 2 2 2 2 2 1 4 10 3 3 3 4 6 3
24 22 17 16 15 11 8 6 5 5 6 7 6 5 6 5 5 4 3 5 6 5 6 11 14 12 15 14 8 4 2 2 4 2 2 0 1 1 1 3 1 2 2 2 2 1 0 1 3 7 5 6 4 4
24 24 20 18 16 12 10 8 7 6 6 6 5 5 6 6 5 5 4 5 6 5 8 3 3 2 5 6 6 2 1 5 4 4 2 1 2 2 1 2 2 2 2 1 3 2 1 5 3 6 1 2 2 7
29 25 20 18 16 13 11 9 8 6 7 6 6 4 5 5 5 6 5 3 3 4 3 1 2 1 0 1 2 7 5 5 6 5 1 1 0 2 1 2 2 2 1 1 3 3 2 3 3 3 3 6 8 10
30 24 20 17 16 14 11 10 9 8 7 6 6 5 5 4 4 4 3 3 4 4 3 6 5 3 2 1 1 1 4 4 4 2 2 1 1 1 1 1 2 2 1 1 2 3 1 2 2 5 5 7 9 10
11 20 19 15 15 14 13 11 10 9 8 7 6 5 4 3 2 1 1 0 2 7 3 2 2 1 2 6 4 2 4 3 1 1 1 2 1 2 2 2 1 3 3 3 1 2 2 3 4 6 7 7 9 10
20 18 19 18 15 14 13 11 11 10 9 8 6 4 4 3 2 2 2 1 3 7 3 4 4 1 4 7 5 3 1 2 2 2 2 1 2 2 2 3 5 5 3 1 3 3 2 3 3 5 5 4 3 1
22 20 17 14 15 14 13 12 11 10 9 7 5 4 4 2 2 4 4 1 3 4 2 2 2 2 2 3 4 4 2 4 3 1 2 2 2 1 4 6 5 7 7 7 7 8 4 4 4 3 4 4 3 2
16 15 17 17 16 15 14 13 12 10 8 5 4 2 1 4 4 5 4 2 2 2 2 2 2 1 1 2 3 2 3 3 3 3 3 4 2 4 1 7 10 8 6 11 8 11 8 6 4 2 3 4 6 8
18 18 17 16 14 14 14 13 11 9 7 5 5 3 3 5 6 6 1 0 2 2 4 4 3 2 1 2 3 2 1 2 3 2 3 3 3 2 3 5 8 9 10 13 10 12 10 9 7 4 2 3 5 8
21 19 18 17 16 15 13 12 10 9 8 8 5 3 8 8 4 2 1 2 2 3 5 5 7 2 3 2 2 1 1 1 2 3 3 3 3 2 2 5 8 9 7 1 6 8 7 7 6 5 4 5 6 7
22 21 21 21 18 16 14 11 9 11 10 8 6 8 7 3 2 2 2 2 3 2 4 3 2 7 2 2 2 3 1 2 3 3 3 3 2 4 2 4 7 9 9 8 6 4 1 1 3 5 7 8 9 9
25 26 26 23 23 20 16 11 10 12 11 9 4 4 3 2 2 4 4 3 2 3 3 2 2 4 3 4 2 2 3 2 1 3 1 1 7 4 2 3 5 7 8 7 6 6 7 8 9 11 13 14 16 16
28 28 30 30 25 24 19 15 13 15 8 3 4 3 3 3 4 4 3 2 1 2 4 3 2 2 2 5 2 2 1 3 3 3 1 3 8 5 1 5 8 11 13 14 15 16 17 18 19 19 20 22 22 24
22 20 20 26 26 24 19 18 16 15 4 3 3 3 4 4 4 5 7 6 6 10 4 2 2 2 1 1 1 0 3 3 1 2 2 5 6 3 3 9 13 15 14 13 14 15 17 19 21 24 23 23 24 25
19 22 20 28 26 23 22 19 18 8 3 3 3 2 4 3 2 3 3 6 5 3 3 2 2 2 4 3 4 3 2 1 2 3 4 6 3 4 9 11 12 12 10 12 11 11 12 13 14 17 17 15 15 16
20 19 28 29 24 23 21 18 12 3 3 2 3 6 6 6 5 3 6 2 2 2 2 3 5 4 1 2 1 1 1 3 5 5 4 1 6 9 9 11 10 9 7 8 8 9 11 12 13 12 12 11 13 15
25 33 30 27 27 25 20 8 5 4 4 5 3 1 2 6 5 3 4 4 3 3 3 1 3 3 1 2 1 3 2 3 2 1 5 9 9 8 10 9 8 6 6 6 8 9 7 8 9 6 6 8 8 8
30 27 25 27 23 14 6 5 3 2 4 3 4 4 2 2 3 3 3 1 2 3 4 2 1 1 1 1 2 4 2 1 3 6 9 8 8 8 5 2 3 5 5 5 6 6 6 9 9 6 7 7 10 12
27 29 27 21 10 4 4 4 4 2 1 1 4 3 1 2 2 2 4 3 2 2 1 0 1 1 2 4 5 2 2 5 7 10 7 7 8 6 5 3 1 3 3 5 7 7 4 4 4 5 5 6 7 6
29 24 20 9 4 2 2 3 3 1 0 2 3 2 3 3 2 0 3 5 0 1 2 1 2 4 4 3 2 4 7 8 7 7 10 11 7 5 1 1 2 1 2 4 4 4 6 6 7 8 6 9 9 10
20 17 6 2 2 2 1 1 0 2 1 2 1 1 2 1 1 2 7 1 1 2 2 3 5 4 5 6 8 9 9 7 6 7 4 3 1 1 2 4 6 5 5 5 3 6 10 13 15 14 11 13 20 19
14 9 2 2 2 1 1 1 1 1 0 2 1 1 2 2 3 4 2 2 3 4 4 4 4 6 8 8 8 6 4 4 5 5 3 2 3 5 7 8 7 8 10 13 13 14 17 19 21 23 21 21 19 16
1 1 0 0 1 1 0 1 1 2 2 2 1 1 1 2 4 2 2 3 3 3 3 4 4 3 2 1 1 1 2 3 4 6 8 8 11 14 14 16 17 18 19 19 18 18 17 17 15 15 16 16 17 15
1 0 0 0 1 1 1 1 2 1 1 1 0 0 0 1 1 1 2 3 4 3 4 4 4 4 3 1 1 2 5 5 6 9 14 16 20 21 20 20 19 18 16 13 13 11 11 12 12 12 12 13 14 14
1 2 1 2 1 1 0 1 1 1 0 1 1 1 1 1 1 3 2 2 3 2 3 3 3 4 5 4 6 6 7 9 12 17 20 19 16 14 14 12 9 8 7 6 6 5 5 7 8 9 8 8 8 7
1 1 2 2 2 1 1 1 1 2 2 3 2 2 2 2 3 3 3 3 2 1 2 3 4 7 10 11 12 11 13 14 15 17 15 13 10 7 4 3 4 3 2 5 5 5 3 2 2 1 1 2 2 3
1 2 1 1 1 1 2 2 2 3 3 3 2 3 2 3 2 2 2 3 2 4 5 5 12 14 18 15 14 14 12 11 9 8 7 4 3 3 2 2 4 4 1 5 7 8 4 2 3 4 6 7 6 5
2 2 4 3 3 4 4 4 3 4 4 6 2 2 2 3 3 3 4 4 6 10 7 16 11 12 14 13 11 8 6 5 2 2 1 1 3 6 5 7 7 5 4 5 7 9 6 4 4 1 4 4 3 4
2 5 3 3 4 4 5 8 6 6 6 10 12 5 3 2 1 5 7 10 14 13 17 14 12 8 9 8 7 5 3 3 4 3 2 2 4 4 5 6 6 4 3 3 4 2 4 4 3 3 4 5 6 7
2 4 3 4 4 6 5 2 1 1 1 3 4 5 5 4 9 11 14 20 24 19 10 7 6 5 5 5 6 5 3 2 1 3 10 9 7 7 6 5 4 4 5 6 8 7 5 4 4 4 6 6 5 3
3 2 2 2 1 5 8 6 6 6 6 10 13 15 12 9 5 11 19 18 13 10 8 4 1 3 5 5 5 6 6 6 5 5 5 3 14 14 10 7 6 5 5 4 5 6 3 3 5 6 5 5 5 5
4 3 3 4 2 2 2 2 2 2 2 2 2 4 5 5 4 7 10 11 9 7 6 3 3 4 3 1 2 5 6 3 2 1 1 1 2 3 4 4 4 4 3 2 3 3 4 6 6 5 4 4 5 4
Wind_Direction
220 235 233 230 231 236 246 279 309 337 351 351 351 4 5 5 354 345 308 332 6 314 287 264 259 288 336 24 11 324 310 21 355 49 7 60 23 47 89 48 35 81 143 158 117 154 199 2 277 235 1 331 338 131
218 223 223 223 225 225 229 254 277 306 336 346 336 355 358 356 350 348 332 326 314 284 267 288 288 274 263 266 274 319 314 322 11 335 53 203 85 24 343 143 153 160 360 32 211 356 282 65 331 320 304 304 6 157
218 215 214 215 217 219 223 240 258 282 312 325 328 337 350 347 338 336 338 336 328 307 304 336 68 324 257 266 244 214 25 6 15 8 345 1 65 296 53 57 306 77 53 283 260 119 296 28 347 341 343 313 65 115
220 205 208 211 213 216 219 229 245 262 297 308 319 322 334 340 333 336 337 342 348 315 297 279 68 83 16 57 178 219 273 325 332 336 314 310 119 260 85 37 297 16 294 20 281 255 277 116 23 18 89 102 105 108
198 197 205 206 211 215 220 230 246 254 282 292 304 307 315 332 328 345 52 75 31 22 308 298 311 157 267 218 166 283 290 296 324 322 326 22 36 207 45 260 232 192 156 255 316 291 274 138 112 110 124 115 112 121
195 205 200 207 213 218 221 229 244 254 266 280 289 291 299 314 302 226 324 338 1 4 328 310 322 165 241 188 200 291 320 276 255 316 301 287 254 291 230 227 246 206 200 212 314 117 179 178 123 95 97 116 134 134
208 204 199 202 215 220 228 234 244 246 255 268 276 276 282 282 215 191 171 112 12 353 353 303 323 193 181 176 198 246 254 210 206 231 254 276 213 311 243 220 198 204 215 216 165 133 71 146 131 128 120 110 119 151
191 191 193 200 216 220 227 230 232 244 252 256 262 261 263 260 196 190 204 283 327 310 335 295 284 312 155 191 198 213 193 192 211 223 227 225 186 264 241 247 297 290 279 254 228 225 288 208 183 149 117 111 100 32
212 206 206 209 213 222 224 222 223 234 240 236 227 212 171 151 137 160 167 227 279 250 316 257 273 132 340 177 184 187 206 210 204 230 218 187 172 220 253 303 307 312 277 270 273 231 222 214 204 146 106 61 24 6
202 201 206 213 212 207 204 203 210 217 212 194 167 147 144 152 141 152 215 211 223 225 225 253 222 248 210 172 172 213 250 213 217 161 146 227 221 274 320 314 306 306 270 241 247 217 207 210 211 210 222 302 330 331
212 210 201 196 191 190 190 192 199 194 179 162 156 137 138 141 149 183 197 216 181 234 214 237 219 265 216 237 155 241 188 218 234 137 236 188 216 179 71 51 48 44 42 129 225 216 221 225 231 241 259 275 292 305
205 202 196 187 183 182 180 181 180 176 169 162 147 126 148 175 156 211 219 207 216 256 210 219 237 208 251 201 204 170 257 231 231 152 224 206 135 147 99 54 54 57 58 65 76 78 104 225 251 264 277 284 288 290
202 206 196 195 198 192 189 181 173 171 157 144 140 147 153 158 150 200 187 185 228 212 213 215 201 179 184 196 143 202 230 242 219 222 187 93 147 163 123 48 21 5 358 349 339 324 310 298 293 289 285 283 283 281
201 197 192 191 193 191 196 180 179 169 158 148 163 138 210 183 223 206 218 241 295 276 302 260 189 198 212 200 160 244 97 250 233 210 136 146 163 165 38 348 340 332 327 320 313 304 297 290 284 278 275 277 279 278
191 198 168 179 181 179 182 175 173 169 157 153 176 200 216 237 258 266 268 263 261 297 280 170 154 123 236 211 228 110 226 233 268 60 93 141 160 180 301 317 318 319 318 320 318 310 303 295 288 284 282 279 276 276
170 163 173 178 170 166 164 165 163 155 179 175 224 237 234 259 282 306 274 269 280 243 179 153 76 20 202 232 203 214 251 224 101 109 143 152 180 280 306 312 315 310 316 312 314 313 314 313 303 291 286 285 282 281
178 152 166 154 153 151 152 154 153 185 191 207 232 243 263 280 270 287 305 290 237 239 218 120 188 234 124 211 216 231 30 86 129 122 140 264 304 309 311 319 317 316 309 314 327 332 321 315 299 289 287 288 283 286
135 136 146 147 147 143 147 151 166 188 225 231 242 171 240 277 280 296 311 268 232 210 181 201 139 187 214 218 182 122 116 125 127 319 316 315 311 312 318 327 327 323 326 323 324 322 332 345 349 337 301 300 319 329
133 139 137 137 136 132 145 165 173 223 234 254 264 307 331 290 288 305 329 251 170 180 151 194 178 187 185 171 125 125 111 8 313 308 317 314 309 305 304 308 11 1 356 353 352 330 337 345 335 329 312 313 317 325
128 132 138 139 135 123 127 154 193 237 242 195 276 295 272 273 237 279 28 59 155 190 180 123 82 119 130 142 146 147 313 315 316 322 323 329 315 307 277 240 336 351 8 17 20 12 17 21 32 21 15 4 2 29
141 143 141 111 82 70 130 162 193 226 178 241 283 195 187 194 196 73 12 3 127 115 147 159 139 157 164 184 265 307 314 309 305 299 312 317 319 301 154 307 293 308 339 27 35 61 77 54 33 32 54 62 58 58
150 153 164 20 28 53 92 144 179 304 298 346 85 200 111 150 51 11 332 281 244 207 192 190 203 228 263 270 277 290 298 298 296 308 313 315 213 84 79 110 93 86 76 64 81 93 84 74 62 58 75 89 91 81
158 153 70 22 22 43 85 355 335 93 343 10 13 51 37 18 350 337 286 253 246 229 225 231 259 273 283 276 270 271 271 289 294 271 273 119 97 108 116 118 108 97 94 91 89 89 92 86 82 76 74 76 76 80
123 258 261 82 115 306 283 152 62 57 52 34 39 69 30 347 344 356 280 267 230 226 218 260 263 255 275 303 291 218 288 21 81 103 124 117 108 111 107 102 97 96 93 93 99 98 93 86 84 88 91 91 90 89
307 174 174 130 191 259 95 64 34 74 104 32 278 291 87 336 311 299 264 273 245 234 243 244 236 218 235 256 96 80 95 105 117 116 120 128 121 112 107 102 99 98 98 96 93 88 82 78 81 83 83 83 83 80
62 16 31 13 34 32 129 124 123 89 262 238 224 206 193 239 242 245 253 267 256 257 249 226 220 199 189 165 137 130 122 117 122 125 128 129 125 121 117 110 102 93 90 85 81 84 87 96 103 107 99 95 89 79
43 84 59 37 35 52 79 173 172 230 241 220 193 187 199 231 246 242 255 260 255 229 173 156 170 164 162 151 142 134 123 117 125 131 133 133 134 137 124 103 94 107 61 51 99 122 134 129 100 104 83 356 330 320
197 182 210 149 284 240 245 237 223 226 227 200 181 212 230 217 241 235 227 177 160 143 147 135 130 140 134 142 140 135 130 128 131 138 142 153 161 158 143 92 104 155 61 52 52 47 60 180 83 86 65 28 25 13
228 192 202 244 222 228 234 226 239 226 211 186 206 228 240 241 236 248 213 180 144 142 133 132 122 102 123 138 143 145 147 151 154 214 235 212 203 191 151 132 113 91 84 77 59 44 33 36 136 90 13 33 52 30
212 196 230 243 213 220 237 213 232 242 256 247 223 263 250 230 171 172 175 161 147 146 131 121 124 126 137 154 171 188 209 215 211 221 213 137 129 155 171 167 160 153 127 96 354 349 71 65 16 345 328 299 290 291
237 204 230 238 291 36 43 26 34 76 87 62 108 112 113 100 90 95 130 142 146 148 148 140 129 140 170 195 212 248 232 165 76 260 231 219 204 198 193 200 228 269 279 297 317 337 318 315 302 332 342 340 346 335
227 230 269 274 311 27 36 51 86 98 86 86 81 91 106 105 76 149 153 159 171 178 166 166 141 191 228 237 262 263 277 290 316 334 346 268 220 220 220 268 284 289 300 315 317 320 317 344 357 356 360 359 357 356
359 1 339 333 356 137 210 97 91 96 41 74 116 150 173 183 189 193 204 205 208 192 178 200 243 230 219 212 314 301 291 260 204 233 273 359 76 163 211 247 260 273 278 323 329 313 330 338 337 329 334 355 4 10